Flag for Germany Weather past 2 weeks in Apolda, Thuringia, Germany

Now
34 °F

Light mixture of precip. Passing clouds.


Feels Like: 27 °F
Forecast: 31 / 45 °F
Wind: 9 mph from West

Location: Erfurt-Bindersleben

Current Time: Mar 5, 2015 at 1:56:24 AM

Latest Report: Mar 5, 2015 at 1:00 AM


Visibility: 13 mi

Pressure: 30.37 "Hg

Humidity: 94%

Dew point: 33 °F

Location of ApoldaLocation

Historic Weather in Apolda — Graph

°F

Apolda temperature yesterday

Maximum temperature yesterday: 41 °F (at 3:00 PM)
Minimum temperature yesterday: 31 °F (at 7:00 AM)
Average temperature yesterday: 36 °F

Past Weeks' High & Low Weather Summary

 TemperatureHumidityPressure
High47 °F (Feb 26, 3:00 PM)99% (Feb 18, 9:00 AM)30.78 "Hg (Feb 18, 9:00 AM)
Low22 °F (Feb 19, 5:00 AM)46% (Feb 26, 2:00 PM)29.44 "Hg (Feb 21, 8:00 AM)
Average36 °F80%29.98 "Hg
* Reported Midnight between Feb 17 and Feb 18 — Midnight between Mar 4 and Mar 5, Apolda, Weather by CustomWeather, © 2015

Note: Actual official high and low records may vary slightly from our data, if they occured in-between our weather recording intervals... More about our weather records

Advertising

Apolda weather history for previous 24 hours

 ConditionsComfort  
Time TempWeatherWind HumidityBarometerVisibility
12:00 AM
Thu, Mar 5
35 °FLight mixture of precip. Overcast.7 mph91%30.35 "Hg22 mi
11:00 PM
Wed, Mar 4
35 °FPassing clouds.7 mph87%30.33 "Hg31 mi
10:00 PM35 °FPassing clouds.8 mph85%30.31 "Hg31 mi
9:00 PM35 °FPassing clouds.7 mph86%30.31 "Hg31 mi
8:00 PM33 °FPassing clouds.6 mph96%30.31 "Hg31 mi
7:00 PM37 °FPassing clouds.6 mph73%30.29 "Hg31 mi
6:00 PM38 °FPartly sunny.6 mph71%30.27 "Hg31 mi
5:00 PM39 °FOvercast.8 mph73%30.26 "Hg31 mi
4:00 PM40 °FOvercast.9 mph69%30.25 "Hg31 mi
3:00 PM41 °FOvercast.9 mph65%30.25 "Hg37 mi
2:00 PM40 °FOvercast.9 mph68%30.25 "Hg31 mi
1:00 PM39 °FOvercast.9 mph70%30.24 "Hg25 mi
12:00 PM38 °FOvercast.10 mph73%30.24 "Hg25 mi
11:00 AM39 °FPartly sunny.9 mph77%30.24 "Hg25 mi
10:00 AM37 °FPassing clouds.8 mph83%30.23 "Hg19 mi
9:00 AM34 °FSunny.6 mph88%30.22 "Hg19 mi
8:00 AM33 °FPassing clouds.7 mph91%30.20 "Hg19 mi
7:00 AM31 °FScattered clouds.3 mph93%30.19 "Hg19 mi
6:00 AM32 °FPassing clouds.6 mph95%30.17 "Hg28 mi
5:00 AM32 °FPassing clouds.5 mph97%30.15 "Hg16 mi
4:00 AM33 °FSnow showers. Low clouds.7 mph98%30.14 "Hg1 mi
3:00 AM34 °FPassing clouds.6 mph93%30.10 "Hg22 mi
2:00 AM34 °FPassing clouds.5 mph94%30.09 "Hg22 mi
1:00 AM36 °FOvercast.6 mph95%30.08 "Hg19 mi
Weather by CustomWeather, © 2015

See weather overviewHow to use our weather pages